Hourly Data Report for September 28, 2017

All times are specified in Local Standard Time (LST). Add 1 hour to adjust for Daylight Saving Time where and when it is observed.

POND INLET A
NUNAVUT

72°41'22.000" N
77°58'08.000" W
61.60 m
2403206
71095
YIO

Related Data

No related data is available for this station

Download Data

Hourly Data (September 2017)
Hourly Data Report for September 28, 2017
Temp Definition
°C
Dew Point Temp Definition
°C
Rel Hum Definition
%
Wind Dir Definition
10's deg

Wind Spd Definition
km/h
Visibility Definition
km
Stn Press Definition
kPa
Hmdx Definition


Wind Chill Definition


Weather Definition


TIME
00:00 Legend Double Dagger -6.6 -8.1 89 17 21 16.1 99.61   -14 LegendNANA
01:00 Legend Double Dagger -6.4 -7.8 90 15 18 4.8 99.59   -13 Snow
02:00 Legend Double Dagger -5.8 -7.0 91 16 17 4.8 99.55   -12 Snow
03:00 Legend Double Dagger -5.5 -6.9 90 16 15 16.1 99.52   -11 Snow
04:00 Legend Double Dagger -5.3 -6.7 90 16 15 16.1 99.48   -11 LegendNANA
05:00 Legend Double Dagger -4.9 -6.4 89 17 11 16.1 99.48   -9 LegendNANA
06:00 Legend Double Dagger -4.7 -6.4 88 15 11 16.1 99.46   -9 LegendNANA
07:00 Legend Double Dagger -4.3 -5.9 89 14 8 4.8 99.46   -8 Snow
08:00 Legend Double Dagger -3.8 -5.5 88 14 4 3.6 99.44   -5 Snow
09:00 Legend Double Dagger -3.2 -4.9 88 16 5 16.1 99.42   -5 Snow
10:00 Legend Double Dagger -3.0 -4.6 89 16 8 16.1 99.42   -6 Snow
11:00 Legend Double Dagger -1.7 -3.9 85   0 16.1 99.43     Snow
12:00 Legend Double Dagger -1.7 -4.2 83 LegendMM 4 14.5 99.45   -3 Snow
13:00 Legend Double Dagger -1.8 -3.8 86 17 5 9.7 99.46   -4 Snow
14:00 Legend Double Dagger -2.5 -4.1 89 20 9 4.8 99.50   -6 Snow
15:00 Legend Double Dagger -2.8 -3.9 92 20 11 2.8 99.53   -7 Snow
16:00 Legend Double Dagger -3.7 -4.8 92 23 17 4.8 99.54   -9 Snow
17:00 Legend Double Dagger -3.7 -4.8 92 21 13 3.2 99.58   -9 Snow
18:00 Legend Double Dagger -3.8 -5.4 89 18 9 16.1 99.61   -8 Snow
19:00 Legend Double Dagger -4.0 -5.3 91 17 11 4.8 99.63   -8 Snow
20:00 Legend Double Dagger -4.5 -5.9 90 19 11 16.1 99.64   -9 Snow
21:00 Legend Double Dagger -4.7 -6.0 91 17 13 16.1 99.64   -10 Snow
22:00 Legend Double Dagger -4.8 -6.1 91 16 15 16.1 99.66   -10 Snow
23:00 Legend Double Dagger -4.8 -6.2 90 16 17 16.1 99.69   -11 Snow

Notes on Data Quality.

Legend

  • E = Estimated
  • M = Missing
  • NA = Not Available
  • ‡ = Partner data that is not subject to review by the National Climate Archives
Date modified: